Location: Del Amo
(33.8464°N, 118.2104°W)
Time: 18:01:58
(UTC+00:00)

Vanguard 2 Rocket - Pass Details

Date: 20 September 2024
Orbit: 553 x 3298 km, 32.9° (Epoch: 11 October)

Event Time Altitude Azimuth Distance (km) Brightness Sun altitude
Rises 05:44:33 0° 206° (SSW) 3,088 - -45.0°
Reaches altitude 10° 05:47:02 10° 190° (S) 2,393 - -45.4°
Maximum altitude 05:51:26 23° 138° (SE) 2,059 - -46.0°
Drops below altitude 10° 05:57:45 10° 90° (E) 3,581 - -46.9°
Sets 06:02:29 0° 79° (ENE) 5,108 - -47.6°
